| time (UTC) | temp F | wind direction | speed MPH | gust MPH | rain 1hr in | rain 24hr in | rain mn in | humidity % | barometer mb |
| 20260505170403 | 54 | 315 | 1.0 | 12.0 | 0.00 | 0.00 | 0.00 | 13 | 1011.3 |
| 20260505163903 | 54 | 280 | 6.0 | 13.0 | 0.00 | 0.00 | 0.00 | 12 | 1011.2 |
| 20260505163404 | 54 | 327 | 3.0 | 14.0 | 0.00 | 0.00 | 0.00 | 10 | 1011.2 |
| 20260505150904 | 52 | 279 | 3.0 | 12.0 | 0.00 | 0.00 | 0.00 | 27 | 1011.3 |
| 20260505150404 | 52 | 303 | 5.0 | 13.0 | 0.00 | 0.00 | 0.00 | 28 | 1011.4 |
| 20260505124904 | 52 | 292 | 5.0 | 14.0 | 0.00 | 0.00 | 0.00 | 3 | 1011.6 |
| 20260505123904 | 52 | 302 | 5.0 | 12.0 | 0.00 | 0.00 | 0.00 | 3 | 1011.7 |
| 20260505121905 | 52 | 309 | 5.0 | 15.0 | 0.00 | 0.00 | 0.00 | 3 | 1011.6 |
| 20260505114905 | 52 | 290 | 6.0 | 12.0 | 0.00 | 0.00 | 0.00 | 3 | 1011.7 |
| 20260505114404 | 52 | 313 | 7.0 | 14.0 | 0.00 | 0.00 | 0.00 | 3 | 1011.7 |
| 20260505113903 | 52 | 294 | 2.0 | 12.0 | 0.00 | 0.00 | 0.00 | 3 | 1011.7 |
| 20260505113404 | 52 | 288 | 4.0 | 12.0 | 0.00 | 0.00 | 0.00 | 3 | 1011.8 |
| 20260505111904 | 50 | 285 | 3.0 | 12.0 | 0.00 | 0.00 | 0.00 | 3 | 1012.1 |
| 20260505110903 | 50 | 310 | 8.0 | 13.0 | 0.00 | 0.00 | 0.00 | 3 | 1012.0 |
| 20260505110405 | 50 | 297 | 6.0 | 20.0 | 0.00 | 0.00 | 0.00 | 3 | 1012.0 |
| 20260505101903 | 50 | 294 | 6.0 | 13.0 | 0.00 | 0.00 | 0.00 | 3 | 1011.9 |
| 20260505100903 | 50 | 291 | 10.0 | 17.0 | 0.00 | 0.00 | 0.00 | 3 | 1011.8 |
| 20260505094903 | 50 | 319 | 2.0 | 10.0 | 0.00 | 0.00 | 0.00 | 3 | 1011.7 |
| 20260505093903 | 50 | 311 | 5.0 | 13.0 | 0.00 | 0.00 | 0.00 | 3 | 1011.8 |
| 20260505091904 | 50 | 299 | 2.0 | 10.0 | 0.00 | 0.00 | 0.00 | 3 | 1011.8 |
| 20260505084404 | 50 | 296 | 3.0 | 10.0 | 0.00 | 0.00 | 0.00 | 3 | 1011.9 |
| 20260505083904 | 50 | 303 | 0.0 | 6.0 | 0.00 | 0.00 | 0.00 | 3 | 1011.9 |
| 20260505083404 | 50 | 313 | 2.0 | 12.0 | 0.00 | 0.00 | 0.00 | 3 | 1012.0 |
| 20260505081904 | 50 | 333 | 2.0 | 5.0 | 0.00 | 0.00 | 0.00 | 3 | 1011.9 |
| 20260505080404 | 50 | 330 | 2.0 | 7.0 | 0.00 | 0.00 | 0.00 | 3 | 1011.8 |
| 20260505073404 | 50 | 293 | 1.0 | 3.0 | 0.00 | 0.00 | 0.00 | 3 | 1011.8 |
| 20260505063903 | 48 | 306 | 0.0 | 0.0 | 0.00 | 0.00 | 0.00 | 3 | 1012.0 |
| 20260505063404 | 48 | 321 | 0.0 | 0.0 | 0.00 | 0.00 | 0.00 | 3 | 1012.0 |
| 20260505061903 | 48 | 309 | 0.0 | 0.0 | 0.00 | 0.00 | 0.00 | 3 | 1012.1 |
| 20260505060903 | 48 | 266 | 0.0 | 0.0 | 0.00 | 0.00 | 0.00 | 3 | 1011.9 |
| 20260505054404 | 46 | 266 | 0.0 | 0.0 | 0.00 | 0.00 | 0.00 | 3 | 1011.8 |
| 20260505051404 | 45 | 266 | 0.0 | 0.0 | 0.00 | 0.00 | 0.00 | 3 | 1011.7 |
| 20260505050904 | 45 | 266 | 0.0 | 0.0 | 0.00 | 0.00 | 0.00 | 3 | 1011.7 |
| 20260505050404 | 45 | 267 | 0.0 | 0.0 | 0.00 | 0.00 | 0.00 | 3 | 1011.7 |
| 20260505040404 | 45 | 271 | 0.0 | 1.0 | 0.00 | 0.00 | 0.00 | 3 | 1011.5 |
| 20260505034403 | 45 | 264 | 0.0 | 1.0 | 0.00 | 0.00 | 0.00 | 3 | 1011.5 |
| 20260505033404 | 45 | 286 | 0.0 | 0.0 | 0.00 | 0.00 | 0.00 | 3 | 1011.6 |
| 20260505031905 | 45 | 275 | 0.0 | 1.0 | 0.00 | 0.00 | 0.00 | 3 | 1011.7 |
| 20260505030905 | 45 | 274 | 0.0 | 1.0 | 0.00 | 0.00 | 0.00 | 3 | 1011.7 |
| 20260505024404 | 46 | 275 | 0.0 | 1.0 | 0.00 | 0.00 | 0.00 | 3 | 1011.7 |
| 20260505023904 | 46 | 268 | 0.0 | 1.0 | 0.00 | 0.00 | 0.00 | 3 | 1011.7 |
| 20260505023403 | 46 | 260 | 0.0 | 1.0 | 0.00 | 0.00 | 0.00 | 3 | 1011.7 |
| 20260505020404 | 46 | 240 | 0.0 | 2.0 | 0.00 | 0.00 | 0.00 | 3 | 1011.9 |
| 20260505013903 | 45 | 260 | 0.0 | 3.0 | 0.00 | 0.00 | 0.00 | 3 | 1012.2 |
| 20260505013403 | 45 | 269 | 0.0 | 3.0 | 0.00 | 0.00 | 0.00 | 3 | 1012.2 |
| 20260505011403 | 46 | 276 | 0.0 | 2.0 | 0.00 | 0.00 | 0.00 | 3 | 1012.2 |
| 20260505004905 | 46 | 277 | 0.0 | 2.0 | 0.00 | 0.00 | 0.00 | 3 | 1012.2 |
| 20260505003905 | 46 | 287 | 0.0 | 1.0 | 0.00 | 0.00 | 0.00 | 3 | 1012.3 |
| 20260505000905 | 45 | 269 | 0.0 | 0.0 | 0.00 | 0.00 | 0.00 | 3 | 1012.3 |
| 20260505000405 | 45 | 271 | 0.0 | 0.0 | 0.00 | 0.00 | 0.00 | 3 | 1012.4 |
| 20260504234404 | 46 | 265 | 0.0 | 0.0 | 0.00 | 0.00 | 0.00 | 3 | 1012.6 |
| 20260504233904 | 46 | 265 | 0.0 | 1.0 | 0.00 | 0.00 | 0.00 | 3 | 1012.6 |
| 20260504231404 | 46 | 297 | 0.0 | 1.0 | 0.00 | 0.00 | 0.00 | 3 | 1012.6 |
| 20260504230403 | 46 | 281 | 0.0 | 1.0 | 0.00 | 0.00 | 0.00 | 3 | 1012.6 |
| 20260504224904 | 48 | 287 | 0.0 | 1.0 | 0.00 | 0.00 | 0.00 | 3 | 1012.5 |
| 20260504223904 | 48 | 287 | 0.0 | 2.0 | 0.00 | 0.00 | 0.00 | 3 | 1012.6 |
| 20260504223404 | 48 | 279 | 0.0 | 2.0 | 0.00 | 0.00 | 0.00 | 3 | 1012.7 |
| 20260504221404 | 48 | 268 | 0.0 | 0.0 | 0.00 | 0.00 | 0.00 | 3 | 1012.8 |
| 20260504220404 | 48 | 253 | 0.0 | 1.0 | 0.00 | 0.00 | 0.00 | 3 | 1012.8 |
| 20260504214903 | 48 | 286 | 0.0 | 1.0 | 0.00 | 0.00 | 0.00 | 3 | 1012.8 |
| 20260504214404 | 48 | 278 | 0.0 | 1.0 | 0.00 | 0.00 | 0.00 | 3 | 1012.9 |
| 20260504213903 | 48 | 278 | 0.0 | 1.0 | 0.00 | 0.00 | 0.00 | 3 | 1012.9 |
| 20260504211904 | 48 | 291 | 0.0 | 0.0 | 0.00 | 0.00 | 0.00 | 3 | 1013.0 |
| 20260504210904 | 48 | 287 | 0.0 | 0.0 | 0.00 | 0.00 | 0.00 | 3 | 1013.0 |
| 20260504204403 | 50 | 292 | 0.0 | 1.0 | 0.00 | 0.00 | 0.00 | 3 | 1013.0 |
| 20260504203903 | 50 | 298 | 0.0 | 1.0 | 0.00 | 0.00 | 0.00 | 3 | 1013.0 |
| 20260504203405 | 50 | 297 | 0.0 | 7.0 | 0.00 | 0.00 | 0.00 | 3 | 1012.9 |
| 20260504201404 | 50 | 314 | 0.0 | 0.0 | 0.00 | 0.00 | 0.00 | 3 | 1012.7 |
| 20260504200905 | 50 | 313 | 0.0 | 1.0 | 0.00 | 0.00 | 0.00 | 3 | 1012.7 |
| 20260504194904 | 52 | 327 | 0.0 | 0.0 | 0.00 | 0.00 | 0.00 | 3 | 1012.5 |
| 20260504194403 | 52 | 304 | 0.0 | 1.0 | 0.00 | 0.00 | 0.00 | 3 | 1012.5 |
| 20260504191905 | 54 | 350 | 2.0 | 10.0 | 0.00 | 0.00 | 0.00 | 3 | 1012.5 |
| 20260504191404 | 54 | 317 | 5.0 | 12.0 | 0.00 | 0.00 | 0.00 | 3 | 1012.5 |
| 20260504190904 | 54 | 322 | 3.0 | 10.0 | 0.00 | 0.00 | 0.00 | 3 | 1012.5 |
| 20260504190406 | 54 | 305 | 5.0 | 12.0 | 0.00 | 0.00 | 0.00 | 3 | 1012.5 |
| 20260504184903 | 54 | 309 | 5.0 | 13.0 | 0.00 | 0.00 | 0.00 | 3 | 1012.3 |
| 20260504183904 | 54 | 325 | 0.0 | 10.0 | 0.00 | 0.00 | 0.00 | 3 | 1012.3 |
| 20260504183407 | 54 | 319 | 1.0 | 12.0 | 0.00 | 0.00 | 0.00 | 3 | 1012.3 |
| 20260504180904 | 55 | 312 | 6.0 | 13.0 | 0.00 | 0.00 | 0.00 | 3 | 1012.2 |
| 20260504174904 | 57 | 305 | 0.0 | 1.0 | 0.00 | 0.00 | 0.00 | 3 | 1012.2 |
| 20260504174403 | 57 | 306 | 3.0 | 10.0 | 0.00 | 0.00 | 0.00 | 3 | 1012.2 |
| 20260504173403 | 57 | 337 | 6.0 | 12.0 | 0.00 | 0.00 | 0.00 | 3 | 1012.2 |
| 20260504171903 | 59 | 318 | 6.0 | 12.0 | 0.00 | 0.00 | 0.00 | 3 | 1012.2 |
| 20260504171405 | 59 | 331 | 4.0 | 12.0 | 0.00 | 0.00 | 0.00 | 3 | 1012.2 |